Location: Albany
(35.0000°S, 118.0000°E)
Time: 18:37:54
(UTC-04:00)

Cosmos 1346 Rocket - Visible Passes

Search period start: 23 May 2017 00:00
Search period end: 02 June 2017 00:00
Orbit: 524 x 559 km, 81.2° (Epoch: 22 May)

Date Brightness Start Highest point End Pass type
(mag) Time Alt. Az. Time Alt. Az. Time Alt. Az.
23 May 5.6 17:21:24 10° NE 17:24:14 19° E 17:27:04 10° SE visible
24 May 5.5 17:14:18 10° NE 17:17:12 20° E 17:20:07 10° SE visible
25 May 5.4 17:07:12 10° NE 17:10:10 21° E 17:13:09 10° SE visible
26 May 5.3 17:00:06 10° NE 17:03:08 22° E 17:06:11 10° SE visible
26 May 4.1 18:36:31 10° WNW 18:39:25 20° WSW 18:42:20 10° SSW visible
27 May 5.2 16:53:01 10° NE 16:56:06 23° E 16:59:13 10° SE visible
27 May 4.1 18:29:35 10° WNW 18:32:24 19° WSW 18:35:15 10° SSW visible
28 May 5.1 16:45:56 10° NE 16:49:05 23° E 16:52:15 10° SE visible
28 May 4.2 18:22:39 10° WNW 18:25:24 18° WSW 18:28:10 10° SSW visible
29 May 5.0 16:38:51 10° NNE 16:42:03 24° E 16:45:17 10° SE visible
29 May 4.2 18:15:44 10° WNW 18:18:23 17° WSW 18:21:04 10° SSW visible
30 May 4.9 16:31:45 10° NNE 16:35:01 26° E 16:38:18 10° SE visible
30 May 4.2 18:08:49 10° WNW 18:11:23 17° WSW 18:13:59 10° SSW visible
31 May6.416:33:27SSE16:33:27SSE16:22:59NNEvisible
